Regional Weather Roundup
Issued by NWS

Home | Current Version | Previous Version | Text Only | Print | Product List | Glossary Off
Versions: 1 2 3 4 5 6 7 8 9 10 11 12 13 14 15 16 17 18 19 20 21 22 23 24 25 26 27 28 29 30 31 32 33 34 35 36 37 38 39 40 41 42 43 44 45 46 47 48 49 50

570
ASUS43 KLMK 281610
RWRKY
KENTUCKY REGIONAL WEATHER ROUNDUP
NATIONAL WEATHER SERVICE LOUISVILLE KY
1200 PM EDT THU APR 28 2016

NOTE "FAIR" INDICATES FEW OR NO CLOUDS BELOW 12,000 FEET
WITH NO SIGNIFICANT WEATHER AND/OR OBSTRUCTIONS TO VISIBILITY.

KYZ001>023-026-027-061>063-070>075-281700-
WESTERN AND SOUTH CENTRAL KENTUCKY

CITY           SKY/WX    TMP DP  RH WIND       PRES   REMARKS
PADUCAH        SUNNY     74  51  44 W10       29.88R
HENDERSON      SUNNY     72  54  53 W14       29.86R
OWENSBORO      SUNNY     74  61  63 W12       29.86S
HOPKINSVILLE   MOSUNNY   73  63  71 W14G20    29.89R
BOWLING GREEN  PTSUNNY   76  65  68 SW12      29.88R
GLASGOW        PTSUNNY   74  63  69 SW10      29.88R
$$

KYZ024-025-028>034-038-045-046-053-281700-
NORTH CENTRAL KENTUCKY

CITY           SKY/WX    TMP DP  RH WIND       PRES   REMARKS
LOUISVILLE/SDF PTSUNNY   74  61  63 SW15      29.84R
LOUISVILLE/LOU PTSUNNY   73  62  68 SW8       29.84R
FORT KNOX      MOSUNNY   74  63  69 S16       29.84R
$$

KYZ035>037-039>044-047>052-055>060-089>105-281700-
NORTHEAST KENTUCKY

CITY           SKY/WX    TMP DP  RH WIND       PRES   REMARKS
LEXINGTON      PTSUNNY   72  63  73 SW9       29.86R
COVINGTON      CLOUDY    66  63  90 S10       29.83S
FRANKFORT      PTSUNNY   72  61  68 SW12      29.84R
$$

KYZ054-064>069-076>088-106>120-281700-
SOUTHEAST KENTUCKY

CITY           SKY/WX    TMP DP  RH WIND       PRES   REMARKS
JACKSON        CLOUDY    70  63  78 VRB7      29.90R
LONDON         PTSUNNY   72  61  68 W12       29.90R
SOMERSET       MOSUNNY   72  61  68 W12       29.90S
MIDDLESBORO    CLOUDY    73  63  71 S10G17    29.92S
MONTICELLO     PTSUNNY   75  65  70 W20       29.91S
$$





USA.gov is the U.S. government's official web portal to all federal, state and local government web resources and services.